Weather History for Madisonville, KY

Change the Weather History Date:

Wednesday, June 12, 2013

  Actual Average (KOWB) Record (KOWB)
Temperature  
Mean Temperature 84 °F -  
Max Temperature 93 °F 85 °F 99 °F (1953)
Min Temperature 76 °F 63 °F 32 °F (2000)
Cooling Degree Days 20    
Growing Degree Days 34 (Base 50)    
Moisture  
Dew Point 75 °F    
Average Humidity 72    
Maximum Humidity 92    
Minimum Humidity 56    
Precipitation  
Precipitation 0.00 in - - ()
Sea Level Pressure  
Sea Level Pressure 29.92 in    
Wind  
Wind Speed 10 mph (WSW)    
Max Wind Speed 20 mph    
Max Gust Speed 26 mph    
Visibility 10 miles    
Events      
Averages and records for this station are not official NWS values.
T = Trace of Precipitation, MM = Missing Value Source: NWS Daily Summary

Daily Weather History Graph

Daily Weather History Graph

Search for Another Location

Airport:

Trip Planner

Search our weather history database for the weather conditions in past years. The results will help you decide how hot, cold, wet, or windy it might be!

Date:

Astronomy

Jun. 12, 2013 Rise Set
Actual Time 5:28 AM CDT 8:10 PM CDT
Civil Twilight 4:57 AM CDT 8:41 PM CDT
Nautical Twilight 4:18 AM CDT 9:20 PM CDT
Astronomical Twilight 3:35 AM CDT 10:04 PM CDT
Moon 9:03 AM CDT (6/12) 10:50 PM CDT (6/12)
Length of Visible Light 15h 44m
Length of Day
14h 42m
Waxing Crescent, 14% of the Moon is Illuminated
Jun 12
Waxing Crescent
Jun 16
First Quarter
Jun 23
Full
Jun 29
Last Quarter
Jul 8
New

Hourly Weather History & Observations

Time (CDT) Temp. Heat Index Dew Point Humidity Pressure Visibility Wind Dir Wind Speed Gust Speed Precip Events Conditions
12:15 AM 81.0 °F 87.5 °F 76.5 °F 86% 29.93 in 10.0 mi SW 8.1 mph - N/A   Clear
12:35 AM 81.7 °F 88.7 °F 76.1 °F 83% 29.93 in 10.0 mi SW 5.8 mph - N/A   Clear
12:55 AM 82.8 °F 90.1 °F 75.4 °F 78% 29.93 in 10.0 mi WSW 12.7 mph - N/A   Clear
1:15 AM 83.3 °F 90.8 °F 75.2 °F 76% 29.93 in 10.0 mi WSW 13.8 mph - N/A   Clear
1:35 AM 82.0 °F 88.9 °F 75.2 °F 80% 29.92 in 10.0 mi WSW 11.5 mph - N/A   Clear
1:55 AM 82.0 °F 88.6 °F 75.0 °F 79% 29.93 in 10.0 mi WSW 8.1 mph - N/A   Clear
2:15 AM 81.9 °F 88.2 °F 74.8 °F 79% 29.93 in 10.0 mi WSW 8.1 mph - N/A   Clear
2:35 AM 81.7 °F 88.0 °F 74.8 °F 80% 29.93 in 10.0 mi WSW 9.2 mph - N/A   Clear
2:55 AM 82.0 °F 88.4 °F 74.7 °F 78% 29.94 in 10.0 mi West 8.1 mph - N/A   Clear
3:15 AM 80.8 °F 86.3 °F 74.7 °F 82% 29.94 in 10.0 mi WSW 6.9 mph - N/A   Clear
3:35 AM 79.3 °F - 74.3 °F 84% 29.94 in 10.0 mi SW 5.8 mph - N/A   Clear
3:55 AM 78.1 °F - 74.3 °F 88% 29.94 in 10.0 mi SW 4.6 mph - N/A   Clear
4:15 AM 78.4 °F - 73.9 °F 86% 29.94 in 10.0 mi SW 5.8 mph - N/A   Clear
4:35 AM 76.5 °F - 73.8 °F 91% 29.95 in 10.0 mi SW 6.9 mph - N/A   Clear
4:55 AM 76.1 °F - 73.8 °F 92% 29.95 in 10.0 mi SW 5.8 mph - N/A   Clear
5:15 AM 78.1 °F - 74.3 °F 88% 29.96 in 10.0 mi SW 5.8 mph - N/A   Clear
5:35 AM 77.0 °F - 74.1 °F 91% 29.96 in 10.0 mi SW 6.9 mph - N/A   Clear
5:55 AM 77.9 °F - 73.9 °F 88% 29.97 in 10.0 mi SW 6.9 mph - N/A   Clear
6:15 AM 78.8 °F - 74.3 °F 86% 29.98 in 10.0 mi SW 8.1 mph - N/A   Clear
6:35 AM 78.8 °F - 74.3 °F 86% 29.98 in 10.0 mi WSW 8.1 mph - N/A   Clear
6:55 AM 79.7 °F - 73.9 °F 82% 29.99 in 10.0 mi WSW 6.9 mph - N/A   Clear
7:15 AM 79.7 °F - 73.9 °F 82% 29.99 in 10.0 mi WSW 6.9 mph - N/A   Clear
7:35 AM 81.1 °F 86.6 °F 74.1 °F 79% 30.00 in 10.0 mi West 9.2 mph - N/A   Clear
7:55 AM 81.9 °F 88.0 °F 74.5 °F 78% 30.00 in 10.0 mi West 11.5 mph - N/A   Clear
8:15 AM 82.6 °F 89.4 °F 74.7 °F 77% 30.01 in 10.0 mi West 9.2 mph - N/A   Clear
8:35 AM 82.4 °F 89.5 °F 75.2 °F 79% 30.01 in 10.0 mi West 9.2 mph - N/A   Clear
8:55 AM 82.8 °F 89.8 °F 74.8 °F 77% 30.02 in 10.0 mi West 12.7 mph - N/A   Clear
9:15 AM 84.7 °F 92.8 °F 74.8 °F 72% 30.02 in 10.0 mi West 12.7 mph - N/A   Clear
9:35 AM 84.6 °F 92.8 °F 75.0 °F 73% 30.02 in 10.0 mi West 12.7 mph - N/A   Clear
9:55 AM 85.1 °F 94.1 °F 75.4 °F 73% 30.02 in 10.0 mi West 10.4 mph - N/A   Clear
10:15 AM 85.6 °F 95.0 °F 75.6 °F 72% 30.02 in 10.0 mi West 10.4 mph - N/A   Clear
10:35 AM 87.4 °F 98.7 °F 76.6 °F 70% 30.01 in 10.0 mi WSW 8.1 mph - N/A   Clear
10:55 AM 89.4 °F 99.4 °F 74.7 °F 62% 30.01 in 10.0 mi West 15.0 mph 24.2 mph N/A   Clear
11:15 AM 89.6 °F 99.8 °F 75.0 °F 62% 30.01 in 10.0 mi West 17.3 mph 21.9 mph N/A   Clear
11:35 AM 89.6 °F 100.4 °F 75.4 °F 63% 30.00 in 10.0 mi West 13.8 mph - N/A   Clear
11:55 AM 90.7 °F 101.9 °F 75.7 °F 61% 30.00 in 10.0 mi WSW 13.8 mph 18.4 mph N/A   Clear
12:15 PM 90.7 °F 101.9 °F 75.6 °F 61% 29.99 in 10.0 mi West 16.1 mph - N/A   Clear
12:35 PM 91.2 °F 101.4 °F 74.5 °F 58% 29.98 in 10.0 mi West 12.7 mph - N/A   Clear
12:55 PM 91.4 °F 103.1 °F 75.9 °F 60% 29.98 in 10.0 mi West 10.4 mph 17.3 mph N/A   Clear
1:15 PM 91.6 °F 102.3 °F 75.0 °F 58% 29.97 in 10.0 mi WSW 10.4 mph - N/A   Clear
1:35 PM 92.3 °F 103.4 °F 74.8 °F 57% 29.95 in 10.0 mi SW 10.4 mph 19.6 mph N/A   Clear
1:55 PM 92.7 °F 105.0 °F 75.7 °F 58% 29.95 in 10.0 mi SW 12.7 mph 16.1 mph N/A   Clear
2:15 PM 92.3 °F 104.1 °F 75.6 °F 58% 29.94 in 10.0 mi SW 15.0 mph - N/A   Scattered Clouds
2:35 PM 92.8 °F 104.8 °F 75.4 °F 57% 29.93 in 10.0 mi SW 12.7 mph 17.3 mph N/A   Scattered Clouds
2:55 PM 93.2 °F 105.0 °F 75.6 °F 56% 29.92 in 10.0 mi SW 18.4 mph 24.2 mph N/A   Scattered Clouds
3:15 PM 93.0 °F 106.7 °F 76.6 °F 59% 29.91 in 10.0 mi SW 12.7 mph 23.0 mph N/A   Scattered Clouds
3:35 PM 93.4 °F 106.9 °F 76.6 °F 58% 29.90 in 10.0 mi WSW 17.3 mph - N/A   Scattered Clouds
3:55 PM 93.4 °F 106.2 °F 75.9 °F 57% 29.89 in 10.0 mi SW 19.6 mph 26.5 mph N/A   Scattered Clouds
4:15 PM 93.4 °F 106.2 °F 76.3 °F 57% 29.88 in 10.0 mi SW 17.3 mph 21.9 mph N/A   Clear
4:35 PM 93.2 °F 106.4 °F 76.3 °F 58% 29.87 in 10.0 mi SW 17.3 mph 21.9 mph N/A   Scattered Clouds
4:55 PM 93.2 °F 105.0 °F 75.2 °F 56% 29.86 in 10.0 mi WSW 17.3 mph 20.7 mph N/A   Clear
5:15 PM 92.8 °F 105.5 °F 76.1 °F 58% 29.86 in 10.0 mi SW 13.8 mph 18.4 mph N/A   Clear
5:35 PM 92.5 °F 103.9 °F 75.4 °F 57% 29.85 in 10.0 mi SW 17.3 mph 24.2 mph N/A   Scattered Clouds
5:55 PM 92.3 °F 105.5 °F 76.6 °F 60% 29.85 in 10.0 mi SW 12.7 mph - N/A   Scattered Clouds
6:15 PM 91.4 °F 103.1 °F 75.6 °F 60% 29.85 in 10.0 mi SW 12.7 mph 20.7 mph N/A   Scattered Clouds
6:35 PM 90.9 °F 101.2 °F 74.7 °F 59% 29.85 in 10.0 mi SW 13.8 mph 23.0 mph N/A   Scattered Clouds
6:55 PM 90.1 °F 100.6 °F 75.0 °F 61% 29.85 in 10.0 mi SW 15.0 mph 20.7 mph N/A   Clear
7:15 PM 89.4 °F 100.0 °F 75.2 °F 63% 29.85 in 10.0 mi SW 12.7 mph 18.4 mph N/A   Clear
7:35 PM 88.5 °F 98.8 °F 75.2 °F 65% 29.85 in 10.0 mi SW 9.2 mph - N/A   Clear
7:55 PM 87.8 °F 97.6 °F 75.4 °F 66% 29.84 in 10.0 mi SW 9.2 mph - N/A   Clear
8:15 PM 86.2 °F 96.4 °F 76.1 °F 72% 29.84 in 10.0 mi SSW 8.1 mph - N/A   Clear
8:35 PM 85.6 °F 95.5 °F 76.3 °F 73% 29.84 in 10.0 mi SSW 6.9 mph - N/A   Clear
8:55 PM 85.1 °F 94.9 °F 76.3 °F 75% 29.83 in 10.0 mi SSW 10.4 mph - N/A   Clear
9:15 PM 85.1 °F 94.5 °F 76.1 °F 74% 29.83 in 10.0 mi SSW 8.1 mph - N/A   Clear
9:35 PM 84.7 °F 94.4 °F 76.3 °F 76% 29.83 in 10.0 mi SSW 10.4 mph - N/A   Clear
9:55 PM 84.7 °F 94.0 °F 76.1 °F 75% 29.84 in 10.0 mi SW 11.5 mph 16.1 mph N/A   Clear
10:15 PM 84.6 °F 93.9 °F 76.1 °F 76% 29.83 in 10.0 mi SW 13.8 mph - N/A   Clear
10:35 PM 84.4 °F 93.5 °F 76.1 °F 76% 29.84 in 10.0 mi SW 12.7 mph - N/A   Clear
10:55 PM 83.7 °F 92.4 °F 76.1 °F 78% 29.83 in 10.0 mi SW 11.5 mph 17.3 mph N/A   Clear
11:15 PM 83.7 °F 92.0 °F 75.7 °F 77% 29.83 in 10.0 mi SW 11.5 mph 18.4 mph N/A   Clear
11:35 PM 83.7 °F 91.7 °F 75.4 °F 76% 29.83 in 10.0 mi SW 13.8 mph 18.4 mph N/A   Clear
11:55 PM 83.5 °F 91.2 °F 75.2 °F 76% 29.85 in 10.0 mi WSW 11.5 mph 17.3 mph N/A   Clear